User: anonymous   Login
Location: Unspecified
(0.0000°N, 0.0000°E)
Time: 02:55:16
(UTC+02:00)
Language:

Atlas Centaur 2 - Orbit

View from above orbital plane
View from above orbital plane
View from above satellite
View from above satellite

Ground track
Ground track

The orbit data is extracted from the following two-line orbital elements,

1   694U 63047A   16208.89533667 +.00000565 +00000-0 +63510-4 0  9998
2   694 030.3546 154.1214 0588997 089.9814 276.8237 14.01822227637410
Epoch (UTC): 26 July 2016 21:29:17
Eccentricity: 0.0588997
inclination: 30.3546°
perigee height: 459 km
apogee height: 1315 km
right ascension of ascending node: 154.1214°
argument of perigee: 89.9814°
revolutions per day: 14.01822227
mean anomaly at epoch: 276.8237°
orbit number at epoch: 63741

The dashed part of the orbit path shows where the satellite is in the earth's shadow,  

DLR